Regional Weather Roundup
Issued by NWS

Home | Current Version | Previous Version | Text Only | Print | Product List | Glossary On
Versions: 1 2 3 4 5 6 7 8 9 10 11 12 13 14 15 16 17 18 19 20 21 22 23 24 25 26 27 28 29 30 31 32 33 34 35 36 37 38 39 40 41 42 43 44 45 46 47 48 49 50
000
ASUS43 KDTX 200801
RWRMI
MICHIGAN HOURLY REGIONAL WEATHER ROUNDUP
NATIONAL WEATHER SERVICE DETROIT/PONTIAC MI
400 AM EDT SUN APR 20 2014

NOTE: "FAIR" INDICATES FEW OR NO CLOUDS BELOW 12,000 FEET WITH NO
SIGNIFICANT WEATHER AND/OR OBSTRUCTION TO VISIBILITY.

MIZ047>049-052>055-059>063-066>070-074>076-081>083-200900-
SOUTHEAST LOWER MICHIGAN

CITY           SKY/WX    TMP DP  RH WIND       PRES   REMARKS
ADRIAN         PTCLDY    36  30  79 E3        30.31F
ALMA           PTCLDY    39  33  78 CALM      30.31S
ANN ARBOR      PTCLDY    39  28  64 NE3       30.32S
BAD AXE        CLEAR     33  28  82 CALM      30.35R
CARO           CLEAR     38  32  81 SE3       30.33F
DETROIT CITY   PTCLDY    41  30  65 NE3       30.33S
DETROIT        MOCLDY    40  29  64 CALM      30.33S
FLINT          PTCLDY    38  30  73 NE5       30.33F WCI  34
GROSSE ILE     PTCLDY    39  32  75 CALM      30.31S
HILLSDALE      PTCLDY    40  31  68 SE8       30.30R WCI  35
HOWELL         PTCLDY    37  29  73 CALM      30.32S

CITY           SKY/WX    TMP DP  RH WIND       PRES   REMARKS
JACKSON        PTCLDY    37  29  72 SE7       30.31S WCI  32
LAMBERTVILLE   PTCLDY    43  32  65 E5        30.31F
LANSING        CLEAR     41  29  62 SE7       30.32S
LAPEER         FAIR      31  30  96 CALM      30.33F
MASON          CLEAR     37  31  81 SE5       30.31S WCI  33
MONROE         PTCLDY    41  30  65 E5        30.30F
MT. CLEMENS    PTCLDY    35  32  89 N5        30.32F WCI  31
PONTIAC        PTCLDY    39  28  64 E3        30.31F
PORT HOPE        N/A     36  29  75 CALM      30.33R
PORT HURON     CLEAR     30  30 100 CALM      30.35S FOG
TRI CITIES     CLEAR     41  32  70 S7        30.33S
TROY           PTCLDY    39  30  69 NE5       30.34S
SAGINAW HB     CLEAR     37  32  81 SE3       30.32F
YPSILANTI      PTCLDY    38  29  70 N3        30.32F
$$
MIZ043>046-050>051-056>058-064>065-071>073-077>080-200900-
SOUTHWEST LOWER MICHIGAN

CITY           SKY/WX    TMP DP  RH WIND       PRES   REMARKS
BATTLE CREEK   PTCLDY    42  28  57 SE5       30.30S
BENTON HARBOR  CLEAR     43  28  55 SE8       30.26F
BIG RAPIDS     PTCLDY    41  31  68 CALM      30.27S
COLDWATER      PTCLDY    39  30  70 E6        30.30R WCI  35
FREMONT        FAIR      46  25  44 SE6       30.26S
HOLLAND        PTCLDY    46  29  51 SE9       30.28S
GRAND RAPIDS   PTCLDY    44  28  53 SE6       30.29F
IONIA          FAIR      38  30  74 SE7       30.30S WCI  32
KALAMAZOO      PTCLDY    40  29  64 SE3       30.29F
LUDINGTON      CLOUDY    49  31  49 SE6       30.22F
MARSHALL       CLEAR     37  29  72 E6        30.30R WCI  32
MOUNT PLEASANT PTCLDY    35  32  90 CALM      30.30F
MUSKEGON       PTCLDY    47  26  44 SE14      30.26F
SOUTH HAVEN    PTCLDY    44  28  52 SE6       30.27S
$$
MIZ016>042-200900-
NORTHERN LOWER MICHIGAN

CITY           SKY/WX    TMP DP  RH WIND       PRES   REMARKS
ALPENA         CLOUDY    34  27  75 SE6       30.31S WCI  29
BEAVER ISLAND  LGT RAIN  39  33  77 E5        30.23S
BELLAIRE       CLOUDY    46  28  49 S7        30.24S
CADILLAC       MOCLDY    43  28  56 S9        30.24F
CHARLEVOIX     CLOUDY    48  30  50 SE8G17    30.25S
FRANKFORT      CLOUDY    49  32  51 SE5       30.20F
GAYLORD        CLOUDY    38  28  67 S12       30.25S WCI  30
GRAYLING       MOCLDY    35  30  81 CALM      30.28S
HARBOR SPRINGS CLOUDY    43  29  58 CALM      30.23F
HOUGHTON LAKE  PTCLDY    36  31  82 S7        30.28S WCI  30
MANISTEE       CLOUDY    48  28  46 SE6       30.23S
OSCODA         PTCLDY    28  24  85 CALM      30.32S
PELLSTON       LGT RAIN  40  26  57 SE8       30.25F WCI  34
ROGERS CITY    CLOUDY    37  28  69 SE8       30.30F WCI  30
TRAVERSE CITY  CLOUDY    48  30  49 S6        30.21F
$$
MIZ007>008-015-200900-
EASTERN UPPER MICHIGAN

CITY           SKY/WX    TMP DP  RH WIND       PRES   REMARKS
KINROSS        CLOUDY    34  32  93 SE13      30.26S WCI  25
MACKINAC ISLAN FLURRIES  33  31  91 E8        30.25S WCI  26
NEWBERRY       LGT RAIN  34  32  91 SE12      30.20F WCI  26
S. S. MARIE    LGT RAIN  33  28  81 E9        30.26F WCI  25
MUNISING         N/A     42  35  76 S9        30.13F
$$
MIZ004>006-011>014-085-200900-
CENTRAL UPPER MICHIGAN

CITY           SKY/WX    TMP DP  RH WIND       PRES   REMARKS
MANISTIQUE     LGT RAIN  37  34  89 SE12      30.20F WCI  29
ESCANABA       CLOUDY    37  32  81 SE8       30.16F WCI  31
MENOMINEE      CLOUDY    37  34  87 SE7       30.15F WCI  32
SAWYER-GWINN   DRIZZLE   38  36  89 S13       30.10F WCI  31
$$
MIZ001>003-009>011-084-200900-
WESTERN UPPER MICHIGAN

CITY           SKY/WX    TMP DP  RH WIND       PRES   REMARKS
IRON MOUNTAIN  LGT RAIN  40  37  89 S7        30.10S
HOUGHTON       CLOUDY    39  32  76 CALM      30.02S
COPPER HARBOR    N/A     40  33  76 W3        30.03R
IRONWOOD       CLOUDY    50  37  62 SW7       29.98S
$$

ABBREVIATIONS USED IN REMARKS
   TC - TEMPERATURE IN CELSIUS
  WCI - WIND CHILL INDEX
   HX - HEAT INDEX
  VSB - VISIBILITY




USA.gov is the U.S. government's official web portal to all federal, state and local government web resources and services.